clicrdv.com alexa rank chart, clicrdv.com alexa rank daily changes

clicrdv.com alexa rank chart, clicrdv.com alexa rank daily changes

clicrdv.com
Actual rank:
67 922

RANK HISTORY

Date Rank Diff
2017/06/29 67 922 +1 113
2017/06/28 66 809 -221
2017/06/27 67 030 +441
2017/06/26 66 589 -46
2017/06/25 66 635 +52
2017/06/24 66 583 -558
2017/06/23 67 141 -855
2017/06/22 67 996 -1 058
2017/06/21 69 054 -363
2017/06/20 69 417 +155
2017/06/19 69 262 -328
2017/06/18 69 590 -423
2017/06/17 70 013 -983
2017/06/16 70 996 -845
2017/06/15 71 841 -486
2017/06/14 72 327 -144
2017/06/13 72 471 +578
2017/06/12 71 893 +721
2017/06/11 71 172 -375
2017/06/10 71 547 -543
2017/06/09 72 090 -1 900
2017/06/08 73 990 -588
2017/06/07 74 578 +2 425
2017/06/06 72 153 +1 298
2017/06/05 70 855 +1 593
2017/06/04 69 262 +867
2017/06/03 68 395 +219
2017/06/02 68 176 -852
2017/06/01 69 028 -878
2017/05/31 69 906 -1 546
2017/05/30 71 452 +969
2017/05/29 70 483 -843
2017/05/28 71 326 -70
2017/05/27 71 396 +984
2017/05/26 70 412 +610
2017/05/25 69 802 -1 368
2017/05/24 71 170 -949
2017/05/23 72 119 +570
2017/05/22 71 549 +1 075
2017/05/21 70 474 +369
2017/05/20 70 105 +680
2017/05/19 69 425 +755
2017/05/18 68 670 -295
2017/05/17 68 965 -546
2017/05/16 69 511 -127
2017/05/15 69 638 +1 259
2017/05/14 68 379 -156
2017/05/13 68 535 -612
2017/05/12 69 147 -850
2017/05/11 69 997 -1 038
2017/05/10 71 035 -656
2017/05/09 71 691 +478
2017/05/08 71 213 +53
2017/05/07 71 160 -1 910
2017/05/06 73 070 -1 176
2017/05/05 74 246 -677
2017/05/04 74 923 -2 057
2017/05/03 76 980 -195
2017/05/02 77 175 +756
2017/05/01 76 419 +1 366
2017/04/30 75 053

WIDGET FOR YOUR SITE

DOMAINS WITH THE NEAREST RANK

Domain Rank
30edu.com.cn 67 917
b2wmarketplace.com.br 67 918
bestandroidappsdownload.com 67 919
pirateproxy.wf 67 920
postyplenie.ru 67 921
clicrdv.com 67 922
hooq.tv 67 923
readcomics.me 67 924
lifeatworkportal.com 67 925
lga4040.com 67 926
5d.com 67 927

DOMAINS WITH THE NEAREST RANK BY TLD .com

Domain Rank
stuartweitzman.com 67 907
everydayhero.com 67 911
kitizawa.com 67 913
leaguelane.com 67 914
bestandroidappsdownload.com 67 919
clicrdv.com 67 922
lifeatworkportal.com 67 925
lga4040.com 67 926
5d.com 67 927
bpm-power.com 67 928
convert-my-image.com 67 929